ARIANE 5 R/B, 42816

Orbit data source: Space-Track

ARIANE 5 R/B, 42816 is space debris in HEO originally from a launch on Wed, 28 Jun 2017 UTC launched from the French Guiana (FRGUI). Debris objects in space refer to the collection of defunct objects orbiting the Earth. Examples of debris include non-operational satellites, rocket bodies, and fragments generated from explosions, collisions, or faulty payload assembly.

Loading next visibility...
Identifier
42816, 2017-040C
Orbit
HEO
Country
Flag of FRFR
Related business
Manufacturer
Airbus Safran
Mission
Spacecraft
Bus & Motor
ESC-A, Unknown motor
Mass
~5,000 kg wet, ~5,000 kg dry
Launch date (UTC)
2017-06-28 (8 years ago)
Launch vehicle
Unknown
Launch site
French Guiana (FRGUI)
Object type
Payload
Rocket body
Debris
Shape & HBR
Cyl + 1 Nozzle, 3.5 m
Radar Cross Section
41.627 m², Large (>1 m²)

Expand to show TLE details & history
Last TLE update: 14 hours ago

TLE from 14 hours ago
0 ARIANE 5 R/B
1 42816U 17040C   25303.61364904  .00003407  00000-0  82540-3 0  9995
2 42816   2.3753 196.0097 7130951 265.3428  17.8242  2.47176473 71576
Epoch: 2025-10-30T14:43Z
TLE epoch observation values (Epoch: 2025-10-30T14:43:39.277Z)
Latitude
0.00003°
Longitude
-63.44831°
Altitude
5,802.271 km
Speed
6.942 km/s
True Right ascension
13h 06m 32s
True Declination
0° 00' 00"
Sunlit
Object was in daylight at epoch
Visualization orbit readout
Latitude
Unknown
Longitude
Unknown
Altitude
Unknown
Speed
Unknown
Apparent Right ascension
Unknown
Apparent Declination
Unknown
Sunlit
N/A
Visualization observer readout
Local Sidereal Time
00:15:06
Azimuth
Unknown
Elevation
Unknown
Doppler factor
Unknown
Orbital elements
Apogee altitude
33,214.631 km
Perigee altitude
252.761 km
Semi-major axis
23,111.833 km
Eccentricity
0.7131
Inclination
2.3753°
RAAN
196.0097°
Arg. of periapsis
265.3428°
True anomaly
95.30038°
Mean anomaly
17.8242°
Eccentric anomaly
48.35676°
Mean motion
0.61772 °/min
Orbital period
582.79 mins
BSTAR
0.0008254
Loading maneuver chart data...
Computing Atmospheric mass density...
Loading historical data...
Loading historical data...
Loading historical data...
Loading historical data...
Loading historical data...
Loading historical data...
Loading historical data...
Other satellites on launch #40 in the year 2017 (2017-06-28 UTC)

Documentation

Showing up to 5 results
|